Location: W�rzburg
(49.7529°N, 9.8822°E)
Time: 07:11:10
(UTC+02:00)

ISS - Visible Passes

Search period start: 09 May 2021 00:00
Search period end: 19 May 2021 00:00
Orbit: 418 x 421 km, 51.6° (Epoch: 08 May)

Date Brightness Start Highest point End Pass type
(mag) Time Alt. Az. Time Alt. Az. Time Alt. Az.
09 May -2.1 02:03:26 28° E 02:03:26 28° E 02:05:13 10° ENE visible
09 May -3.3 03:36:22 18° W 03:38:44 61° N 03:42:06 10° ENE visible
10 May -1.0 01:17:26 12° E 01:17:26 12° E 01:17:44 10° ENE visible
10 May -3.5 02:50:22 44° WNW 02:51:15 67° N 02:54:38 10° ENE visible
10 May -3.5 04:24:53 10° WNW 04:28:16 72° NNE 04:31:39 10° E visible
11 May -3.3 02:04:21 58° NE 02:04:21 58° NE 02:07:11 10° ENE visible
11 May -3.3 03:37:25 10° WNW 03:40:47 64° N 03:44:09 10° E visible
12 May -1.9 01:18:16 24° ENE 01:18:16 24° ENE 01:19:44 10° ENE visible
12 May -3.3 02:51:11 21° WNW 02:53:18 60° N 02:56:40 10° E visible
12 May -3.8 04:26:50 10° WNW 04:30:13 75° SSW 04:33:36 10° ESE visible
13 May -1.0 00:32:06 11° ENE 00:32:06 11° ENE 00:32:17 10° ENE visible
13 May -3.3 02:05:02 45° WNW 02:05:49 61° N 02:09:10 10° ENE visible
13 May -3.8 03:39:24 10° WNW 03:42:47 86° NNE 03:46:10 10° ESE visible
14 May -3.3 01:18:38 62° NNE 01:18:38 62° NNE 01:21:42 10° ENE visible
14 May -3.6 02:51:56 10° WNW 02:55:19 72° NNE 02:58:42 10° E visible
14 May -3.3 04:28:52 10° W 04:32:02 38° SSW 04:35:12 10° SE visible
14 May -3.1 22:51:08 10° SSW 22:54:11 33° SSE 22:55:39 22° E visible
15 May -3.7 00:27:28 10° W 00:30:51 77° NNW 00:34:14 10° ENE visible
15 May -3.4 02:04:29 10° WNW 02:07:50 64° N 02:11:13 10° E visible
15 May -3.7 03:41:21 10° WNW 03:44:40 54° SSW 03:47:59 10° SE visible
15 May -2.6 22:04:11 10° SSW 22:06:53 23° SE 22:09:37 10° E visible
15 May -3.9 23:40:01 10° WSW 23:43:23 86° SSE 23:46:47 10° ENE visible
16 May -3.3 01:16:59 10° W 01:20:21 60° N 01:23:42 10° E visible
16 May -3.9 02:53:53 10° WNW 02:57:17 74° SSW 03:00:38 10° ESE visible
16 May -2.3 04:31:15 10° W 04:33:40 18° SW 04:36:06 10° S visible
16 May -3.9 22:52:38 10° WSW 22:55:58 66° SSE 22:59:19 10° ENE visible
17 May -3.3 00:29:30 10° W 00:32:51 61° N 00:36:13 10° ENE visible
17 May -3.8 02:06:26 10° WNW 02:09:49 86° N 02:13:13 10° ESE visible
17 May -2.8 03:43:30 10° W 03:46:23 27° SW 03:49:17 10° SSE visible
17 May -3.5 22:05:19 10° SW 22:08:35 47° SSE 22:11:50 10° ENE visible
17 May -3.4 23:41:59 10° W 23:45:21 66° N 23:48:43 10° ENE visible
18 May -3.6 01:18:59 10° WNW 01:22:22 72° NNE 01:22:55 56° ENE visible
18 May -3.6 22:54:30 10° W 22:57:52 77° NNW 23:01:15 10° ENE visible
